FW8496 Weather Reports


time (UTC)temp
F
wind
direction
speed
knots
gust
knots
rain 1hr
in
rain 24hr
in
rain mn
in
humidity
%
barometer
mb
20260508004547 72 205 3.5 11.3 0.00 0.00 0.00 10 1015.8
20260508004043 72 196 2.6 8.7 0.00 0.00 0.00 10 1015.8
20260508003542 72 245 3.5 10.4 0.00 0.00 0.00 10 1015.9
20260508003047 73 188 5.2 10.4 0.00 0.00 0.00 10 1015.9
20260508002542 73 202 4.3 10.4 0.00 0.00 0.00 10 1015.9
20260508002042 74 194 1.7 8.7 0.00 0.00 0.00 10 1015.9
20260508001551 74 171 3.5 8.7 0.00 0.00 0.00 10 1015.9
20260508001042 74 200 2.6 7.8 0.00 0.00 0.00 10 1016.0
20260508000542 74 219 2.6 9.6 0.00 0.00 0.00 10 1016.0
20260508000048 74 241 1.7 9.6 0.00 0.00 0.00 10 1016.0
20260507235542 74 211 4.3 9.6 0.00 0.00 0.00 10 1016.0
20260507235042 74 134 2.6 8.7 0.00 0.00 0.00 11 1016.0
20260507234548 74 188 3.5 8.7 0.00 0.00 0.00 11 1016.1
20260507234042 74 207 1.7 7.8 0.00 0.00 0.00 11 1016.3
20260507233543 74 228 3.5 9.6 0.00 0.00 0.00 12 1016.2
20260507233051 73 219 0.0 12.2 0.00 0.00 0.00 12 1016.2
20260507232543 73 242 6.1 12.2 0.00 0.00 0.00 12 1016.3
20260507232042 73 254 6.1 12.2 0.00 0.00 0.00 12 1016.2
20260507231551 74 188 7.0 12.2 0.00 0.00 0.00 13 1016.3
20260507231042 74 269 3.5 11.3 0.00 0.00 0.00 14 1016.2
20260507230542 74 234 4.3 11.3 0.00 0.00 0.00 15 1016.4
20260507230108 74 304 6.1 13.0 0.00 0.00 0.00 14 1016.4
20260507225542 74 221 7.0 13.0 0.00 0.00 0.00 14 1016.4
20260507225042 75 311 7.0 13.0 0.00 0.00 0.00 14 1016.4
20260507224549 75 331 6.1 9.6 0.00 0.00 0.00 15 1016.4
20260507224041 75 281 2.6 7.8 0.00 0.00 0.00 16 1016.4
20260507223542 75 248 4.3 7.8 0.00 0.00 0.00 17 1016.4
20260507223138 74 213 2.6 7.8 0.00 0.00 0.00 17 1016.4
20260507222542 74 331 1.7 7.8 0.00 0.00 0.00 18 1016.6
20260507222042 73 309 3.5 10.4 0.00 0.00 0.00 18 1016.7
20260507221550 74 335 4.3 15.6 0.00 0.00 0.00 18 1016.8
20260507221043 73 319 8.7 15.6 0.00 0.00 0.00 18 1016.8
20260507220542 74 304 3.5 12.2 0.00 0.00 0.00 17 1016.8
20260507220049 74 30 4.3 10.4 0.00 0.00 0.00 16 1017.0
20260507215542 74 314 3.5 10.4 0.00 0.00 0.00 16 1017.0
20260507215042 75 360 5.2 10.4 0.00 0.00 0.00 14 1017.1
20260507214554 74 323 3.5 11.3 0.00 0.00 0.00 15 1017.1
20260507214042 74 325 4.3 11.3 0.00 0.00 0.00 15 1017.2
20260507213542 74 309 6.1 10.4 0.00 0.00 0.00 14 1017.3
20260507213100 75 310 0.9 10.4 0.00 0.00 0.00 15 1017.5
20260507212542 74 284 2.6 10.4 0.00 0.00 0.00 14 1017.6
20260507212042 74 309 5.2 10.4 0.00 0.00 0.00 13 1017.6
20260507211552 74 239 3.5 10.4 0.00 0.00 0.00 14 1017.7
20260507211041 74 331 2.6 8.7 0.00 0.00 0.00 13 1017.8
20260507210543 74 296 1.7 9.6 0.00 0.00 0.00 11 1017.8
20260507210050 73 253 4.3 9.6 0.00 0.00 0.00 12 1018.0
20260507205543 73 302 3.5 8.7 0.00 0.00 0.00 12 1018.0
20260507205044 73 313 3.5 7.8 0.00 0.00 0.00 11 1018.1
20260507204548 74 26 1.7 9.6 0.00 0.00 0.00 10 1018.2
20260507204042 73 194 1.7 9.6 0.00 0.00 0.00 10 1018.3
20260507203542 71 317 0.9 7.0 0.00 0.00 0.00 10 1018.3
20260507203051 71 352 1.7 10.4 0.00 0.00 0.00 10 1018.4
20260507202542 71 290 4.3 10.4 0.00 0.00 0.00 10 1018.5
20260507202045 70 271 4.3 11.3 0.00 0.00 0.00 9 1018.5
20260507201554 69 289 6.1 11.3 0.00 0.00 0.00 9 1018.6
20260507201042 69 319 3.5 10.4 0.00 0.00 0.00 10 1018.6
20260507200542 69 311 2.6 13.0 0.00 0.00 0.00 9 1018.7
20260507200054 69 310 7.0 13.0 0.00 0.00 0.00 10 1018.8
20260507195541 68 344 3.5 12.2 0.00 0.00 0.00 9 1018.8
20260507195044 68 309 4.3 12.2 0.00 0.00 0.00 10 1018.8
20260507194549 68 317 4.3 12.2 0.00 0.00 0.00 11 1018.9
20260507194044 67 283 7.8 12.2 0.00 0.00 0.00 10 1018.9
20260507193542 66 311 5.2 13.0 0.00 0.00 0.00 10 1019.1
20260507193052 65 11 6.1 13.0 0.00 0.00 0.00 9 1019.2
20260507192545 66 296 6.1 14.8 0.00 0.00 0.00 12 1019.2
20260507192042 65 311 7.0 14.8 0.00 0.00 0.00 14 1019.1
20260507191546 64 341 7.8 14.8 0.00 0.00 0.00 13 1019.2
20260507191045 64 275 8.7 16.5 0.00 0.00 0.00 13 1019.3
20260507190542 63 316 10.4 16.5 0.00 0.00 0.00 16 1019.3
20260507190053 63 13 7.0 14.8 0.00 0.00 0.00 16 1019.3
20260507185542 62 9 8.7 16.5 0.00 0.00 0.00 16 1019.3
20260507185041 62 293 8.7 16.5 0.00 0.00 0.00 18 1019.4
20260507184549 61 319 6.1 15.6 0.00 0.00 0.00 18 1019.5
20260507184043 61 317 9.6 15.6 0.00 0.00 0.00 16 1019.5
20260507183543 61 329 9.6 15.6 0.00 0.00 0.00 18 1019.6
20260507183048 60 9 7.0 13.9 0.00 0.00 0.00 22 1019.5
20260507182542 60 342 9.6 13.9 0.00 0.00 0.00 20 1019.7
20260507182044 59 352 8.7 14.8 0.00 0.00 0.00 21 1019.7
20260507181550 59 9 9.6 15.6 0.00 0.00 0.00 22 1019.8
20260507181045 59 336 8.7 18.2 0.00 0.00 0.00 21 1020.0
20260507180543 59 346 10.4 18.2 0.00 0.00 0.00 24 1020.0
20260507180050 58 349 7.8 14.8 0.00 0.00 0.00 25 1020.1
20260507175542 58 355 7.8 16.5 0.00 0.00 0.00 25 1020.2
20260507175042 57 300 11.3 16.5 0.00 0.00 0.00 26 1020.2
20260507174555 57 338 8.7 16.5 0.00 0.00 0.00 27 1020.4
20260507174041 57 315 9.6 15.6 0.00 0.00 0.00 29 1020.4
20260507173543 56 332 8.7 16.5 0.00 0.00 0.00 31 1020.4
20260507173054 56 331 8.7 16.5 0.00 0.00 0.00 30 1020.5
20260507172546 55 341 8.7 18.2 0.00 0.00 0.00 30 1020.5
20260507172041 55 350 10.4 18.2 0.00 0.00 0.00 31 1020.6
20260507171600 55 352 11.3 18.2 0.00 0.00 0.00 32 1020.6
20260507171042 54 355 9.6 18.2 0.00 0.00 0.00 33 1020.7
20260507170544 54 321 10.4 19.1 0.00 0.00 0.00 35 1020.6
20260507170050 53 360 11.3 20.9 0.00 0.00 0.00 34 1020.7
20260507165542 52 336 12.2 20.9 0.00 0.00 0.00 36 1020.6
20260507165042 52 340 11.3 18.2 0.00 0.00 0.00 37 1020.7
20260507164551 51 344 9.6 18.2 0.00 0.00 0.00 42 1020.7
20260507164043 50 298 10.4 18.2 0.00 0.00 0.00 44 1020.9
20260507163542 50 355 11.3 18.2 0.00 0.00 0.00 47 1020.9
20260507163047 49 344 9.6 16.5 0.00 0.00 0.00 48 1021.0
20260507162542 49 28 10.4 15.6 0.00 0.00 0.00 50 1021.0
20260507162044 48 355 9.6 15.6 0.00 0.00 0.00 51 1021.0
20260507161556 47 5 10.4 17.4 0.00 0.00 0.00 52 1021.1
20260507161042 46 352 10.4 17.4 0.00 0.00 0.00 53 1021.1
20260507160543 46 10 11.3 17.4 0.00 0.00 0.00 54 1021.1
20260507160052 45 328 11.3 17.4 0.00 0.00 0.00 54 1021.1
20260507155541 45 352 11.3 18.2 0.00 0.00 0.00 55 1021.4
20260507155042 44 360 12.2 18.2 0.00 0.00 0.00 55 1021.4
20260507154552 44 23 11.3 20.0 0.00 0.00 0.00 55 1021.5
20260507154042 44 329 12.2 20.0 0.00 0.00 0.00 56 1021.6
20260507153542 44 38 11.3 20.0 0.00 0.00 0.00 55 1021.6
20260507153107 43 355 10.4 15.6 0.00 0.00 0.00 58 1021.7
20260507152542 43 5 9.6 15.6 0.00 0.00 0.00 59 1021.8
20260507152043 43 352 9.6 14.8 0.00 0.00 0.00 60 1021.8
20260507151553 43 321 8.7 14.8 0.00 0.00 0.00 62 1021.8
20260507151041 42 340 8.7 13.9 0.00 0.00 0.00 63 1021.7
20260507150543 42 331 7.8 15.6 0.00 0.00 0.00 64 1021.7
20260507150053 41 327 9.6 15.6 0.00 0.00 0.00 65 1021.7
20260507145542 41 300 7.8 14.8 0.00 0.00 0.00 65 1021.7
20260507145042 41 313 7.8 12.2 0.00 0.00 0.00 67 1021.7
20260507144555 40 348 7.0 11.3 0.00 0.00 0.00 68 1021.7
20260507144042 40 351 7.0 11.3 0.00 0.00 0.00 69 1021.8
20260507143543 40 327 7.0 11.3 0.00 0.00 0.00 70 1021.9
20260507143053 40 336 7.0 11.3 0.00 0.00 0.00 72 1022.0
20260507142542 40 329 5.2 11.3 0.00 0.00 0.00 72 1022.0
20260507142042 39 303 7.8 11.3 0.00 0.00 0.00 72 1022.0
20260507141548 39 333 3.5 9.6 0.00 0.00 0.00 75 1022.1
20260507141042 39 5 4.3 9.6 0.00 0.00 0.00 76 1022.2
20260507140542 38 328 4.3 9.6 0.00 0.00 0.00 77 1022.3
20260507140049 38 315 3.5 5.2 0.00 0.00 0.00 78 1022.3
20260507135544 37 328 2.6 7.0 0.00 0.00 0.00 78 1022.3
20260507135045 37 355 2.6 7.0 0.00 0.00 0.00 79 1022.4
20260507134558 37 355 4.3 7.0 0.00 0.00 0.00 80 1022.3
20260507134041 36 360 2.6 5.2 0.00 0.00 0.00 81 1022.2
20260507133542 36 360 2.6 5.2 0.00 0.00 0.00 82 1022.1
20260507133052 35 344 2.6 4.3 0.00 0.00 0.00 83 1022.1
20260507132542 35 360 2.6 4.3 0.00 0.00 0.00 84 1022.1
20260507132041 35 360 2.6 4.3 0.00 0.00 0.00 84 1022.1
20260507131546 34 360 1.7 5.2 0.00 0.00 0.00 85 1022.1
20260507131042 34 360 1.7 5.2 0.00 0.00 0.00 86 1022.1
20260507130544 34 360 2.6 5.2 0.00 0.00 0.00 87 1022.1
20260507130100 33 355 1.7 3.5 0.00 0.00 0.00 87 1022.2
20260507125542 33 355 1.7 5.2 0.00 0.00 0.00 87 1022.1
20260507125041 33 355 1.7 5.2 0.00 0.00 0.00 88 1022.1
20260507124607 33 355 2.6 4.3 0.00 0.00 0.00 88 1022.2
20260507124042 32 5 2.6 4.3 0.00 0.00 0.00 89 1022.2
20260507123543 32 5 2.6 6.1 0.00 0.00 0.00 90 1022.1
20260507123103 32 5 2.6 6.1 0.00 0.00 0.00 90 1022.0
20260507122542 31 24 2.6 4.3 0.00 0.00 0.00 90 1022.1
20260507122042 30 22 2.6 4.3 0.00 0.00 0.00 90 1022.0
20260507121558 30 45 1.7 3.5 0.00 0.00 0.00 89 1022.2
20260507121045 30 157 1.7 3.5 0.00 0.00 0.00 89 1022.2
20260507120545 30 128 0.9 2.6 0.00 0.00 0.00 89 1022.1
20260507120050 29 128 0.9 2.6 0.00 0.00 0.00 89 1022.2
20260507115542 29 128 0.9 2.6 0.00 0.00 0.00 88 1022.1
20260507115042 29 128 0.9 2.6 0.00 0.00 0.00 88 1022.0
20260507114550 29 128 1.7 2.6 0.00 0.00 0.00 87 1022.1
20260507114042 29 128 1.7 2.6 0.00 0.00 0.00 87 1022.2
20260507113545 29 128 0.0 1.7 0.00 0.00 0.00 85 1022.2
20260507113047 29 128 0.9 1.7 0.00 0.00 0.00 85 1022.1
20260507112545 29 0 0.0 0.9 0.00 0.00 0.00 85 1022.1
20260507112042 29 128 0.0 2.6 0.00 0.00 0.00 84 1022.0
20260507111547 29 0 0.0 2.6 0.00 0.00 0.00 84 1022.0
20260507111041 29 128 1.7 2.6 0.00 0.00 0.00 83 1021.9
20260507110541 29 128 0.0 1.7 0.00 0.00 0.00 83 1021.9
20260507110052 30 0 0.0 1.7 0.00 0.00 0.00 83 1021.9
20260507105542 30 0 0.0 1.7 0.00 0.00 0.00 83 1021.9
20260507105044 30 128 0.0 2.6 0.00 0.00 0.00 83 1021.9
20260507104553 30 128 0.0 2.6 0.00 0.00 0.00 83 1022.0
20260507104041 30 128 0.9 2.6 0.00 0.00 0.00 83 1022.0
20260507103544 31 128 0.0 1.7 0.00 0.00 0.00 84 1022.0
20260507103048 31 0 0.0 1.7 0.00 0.00 0.00 84 1022.0
20260507102542 31 0 0.0 1.7 0.00 0.00 0.00 84 1022.0
20260507102042 31 0 0.0 1.7 0.00 0.00 0.00 84 1022.0
20260507101557 31 128 0.0 2.6 0.00 0.00 0.00 83 1022.0
20260507101041 31 0 0.0 2.6 0.00 0.00 0.00 83 1022.0
20260507100541 31 128 1.7 2.6 0.00 0.00 0.00 83 1022.0
20260507095543 31 128 0.9 1.7 0.00 0.00 0.00 82 1022.0
20260507095042 31 128 0.0 2.6 0.00 0.00 0.00 82 1021.9
20260507094549 31 128 0.9 2.6 0.00 0.00 0.00 82 1022.0
20260507094042 32 128 0.0 2.6 0.00 0.00 0.00 82 1021.9
20260507093542 32 128 0.9 2.6 0.00 0.00 0.00 82 1022.0
20260507093047 32 128 0.9 1.7 0.00 0.00 0.00 82 1022.1
20260507092542 32 128 0.0 1.7 0.00 0.00 0.00 81 1022.0
20260507092042 32 128 0.0 1.7 0.00 0.00 0.00 80 1022.0
20260507091547 32 0 0.9 1.7 0.00 0.00 0.00 81 1022.0
20260507091042 33 128 0.0 3.5 0.00 0.00 0.00 81 1022.0
20260507090542 33 0 0.0 3.5 0.00 0.00 0.00 81 1022.0
20260507090049 33 128 1.7 3.5 0.00 0.00 0.00 80 1022.0
20260507085542 33 128 0.9 1.7 0.00 0.01 0.00 80 1021.9
20260507085042 34 0 0.0 1.7 0.00 0.01 0.00 79 1022.0
20260507084549 34 0 0.0 2.6 0.00 0.01 0.00 79 1022.0
20260507084042 34 128 0.0 2.6 0.00 0.01 0.00 79 1021.8
20260507083542 34 128 0.9 3.5 0.00 0.01 0.00 79 1021.7
20260507083105 35 128 0.9 3.5 0.00 0.01 0.00 80 1021.7
20260507082542 35 128 1.7 3.5 0.00 0.01 0.00 79 1021.7
20260507082045 35 128 1.7 3.5 0.00 0.01 0.00 78 1021.7
20260507081557 35 128 0.9 3.5 0.00 0.01 0.00 78 1021.7
20260507081042 35 128 1.7 3.5 0.00 0.01 0.00 78 1021.7
20260507080542 35 128 2.6 3.5 0.00 0.01 0.00 77 1021.7
20260507080049 36 128 0.9 4.3 0.00 0.01 0.00 77 1021.6
20260507075544 36 128 0.9 4.3 0.00 0.01 0.00 77 1021.6
20260507075042 36 121 1.7 4.3 0.00 0.01 0.00 77 1021.5
20260507074549 36 27 0.9 4.3 0.00 0.01 0.00 77 1021.5
20260507074041 36 14 2.6 5.2 0.00 0.01 0.00 77 1021.4
20260507073542 36 5 2.6 7.8 0.00 0.01 0.00 76 1021.3
20260507073059 37 344 3.5 7.8 0.00 0.01 0.00 76 1021.3
20260507072542 37 355 5.2 8.7 0.00 0.01 0.00 76 1021.2
20260507072043 37 338 4.3 8.7 0.00 0.01 0.00 75 1021.2
20260507071550 37 313 4.3 7.8 0.00 0.01 0.00 75 1021.1
20260507071042 37 360 4.3 7.8 0.00 0.01 0.00 75 1021.2
20260507070541 37 15 4.3 7.0 0.00 0.01 0.00 75 1021.1
20260507070053 37 25 4.3 7.0 0.00 0.01 0.00 75 1021.2
20260507065541 37 349 3.5 7.0 0.00 0.01 0.00 75 1021.2
20260507065042 38 355 3.5 5.2 0.00 0.01 0.00 74 1021.2
20260507064548 38 360 3.5 5.2 0.00 0.01 0.00 74 1021.1
20260507064045 38 355 2.6 7.0 0.00 0.01 0.00 73 1021.1
20260507063542 38 355 3.5 7.0 0.00 0.01 0.00 73 1021.0
20260507063050 39 360 3.5 8.7 0.00 0.01 0.00 72 1020.9
20260507062542 39 28 3.5 8.7 0.00 0.01 0.00 72 1020.9
20260507062042 39 32 4.3 8.7 0.00 0.01 0.00 72 1020.9
20260507061545 39 26 3.5 7.8 0.00 0.01 0.00 72 1020.9
20260507061041 39 28 4.3 7.8 0.00 0.01 0.00 72 1020.8
20260507060541 39 21 4.3 7.8 0.00 0.01 0.00 72 1020.8
20260507060049 39 39 4.3 7.8 0.00 0.01 0.00 72 1020.7
20260507055542 39 34 5.2 7.8 0.00 0.01 0.01 73 1020.7
20260507055042 39 19 5.2 7.8 0.00 0.01 0.01 73 1020.7
20260507054548 39 17 4.3 7.8 0.00 0.01 0.01 73 1020.6
20260507054041 39 9 4.3 7.8 0.00 0.01 0.01 72 1020.5
20260507053542 39 5 4.3 7.8 0.00 0.01 0.01 72 1020.6
20260507053049 39 28 4.3 9.6 0.00 0.01 0.01 72 1020.6
20260507052542 39 5 4.3 9.6 0.00 0.01 0.01 71 1020.5
20260507052041 39 5 5.2 8.7 0.00 0.01 0.01 71 1020.5
20260507051554 39 5 6.1 8.7 0.00 0.01 0.01 70 1020.5
20260507051042 39 26 5.2 8.7 0.00 0.01 0.01 68 1020.5
20260507050546 39 13 5.2 7.8 0.00 0.01 0.01 67 1020.4
20260507050050 40 5 2.6 5.2 0.00 0.01 0.01 66 1020.4
20260507045542 40 343 2.6 5.2 0.00 0.02 0.01 66 1020.4
20260507045042 40 331 2.6 4.3 0.00 0.02 0.01 65 1020.4
20260507044550 41 5 1.7 3.5 0.00 0.02 0.01 64 1020.2
20260507044041 41 346 2.6 4.3 0.00 0.02 0.01 64 1020.2
20260507043542 41 16 2.6 4.3 0.00 0.02 0.01 64 1020.2
20260507043049 41 5 2.6 4.3 0.00 0.02 0.01 62 1020.1
20260507042542 42 338 2.6 4.3 0.00 0.02 0.01 61 1020.0
20260507042041 42 312 2.6 5.2 0.00 0.02 0.01 60 1019.9
20260507041549 43 329 1.7 7.0 0.00 0.02 0.01 59 1019.9
20260507041045 43 324 3.5 7.0 0.00 0.02 0.01 57 1019.8
20260507040542 44 323 3.5 5.2 0.00 0.02 0.01 55 1019.7
20260507040051 44 307 2.6 4.3 0.00 0.02 0.01 53 1019.6
20260507035542 44 344 1.7 7.0 0.00 0.04 0.01 52 1019.5
20260507035042 44 344 2.6 7.0 0.00 0.04 0.01 52 1019.5
20260507034547 45 360 2.6 5.2 0.00 0.04 0.01 51 1019.4
20260507034042 45 324 2.6 7.8 0.00 0.04 0.01 50 1019.3
20260507033542 45 334 2.6 7.8 0.00 0.04 0.01 49 1019.3
20260507033055 46 288 2.6 4.3 0.00 0.04 0.01 49 1019.3
20260507032543 46 313 2.6 4.3 0.00 0.04 0.01 48 1019.1
20260507032041 46 319 2.6 9.6 0.00 0.04 0.01 47 1019.1
20260507031556 46 319 2.6 9.6 0.00 0.04 0.01 47 1018.9
20260507031044 47 311 0.9 4.3 0.00 0.04 0.01 46 1018.9
20260507030541 47 236 0.9 4.3 0.00 0.04 0.01 45 1018.7
20260507030053 47 246 0.9 3.5 0.00 0.04 0.01 45 1018.6
20260507025546 47 234 0.9 3.5 0.00 0.09 0.01 45 1018.4
20260507025047 48 219 0.9 3.5 0.00 0.09 0.01 44 1018.3
20260507024551 48 0 0.9 3.5 0.00 0.09 0.01 44 1018.2
20260507024045 48 222 0.9 3.5 0.00 0.09 0.01 44 1018.0
20260507023549 49 229 1.7 3.5 0.00 0.09 0.01 43 1018.0
20260507023046 49 236 0.9 5.2 0.00 0.09 0.01 43 1017.9
20260507022545 49 240 1.7 6.1 0.00 0.09 0.01 43 1017.7
20260507022042 50 258 2.6 6.1 0.00 0.09 0.01 42 1017.7
20260507021549 50 286 2.6 7.0 0.00 0.09 0.01 42 1017.7
20260507021041 50 271 2.6 7.0 0.00 0.09 0.01 41 1017.6
20260507020542 51 267 2.6 8.7 0.00 0.09 0.01 41 1017.5
20260507020104 51 250 3.5 8.7 0.00 0.09 0.01 40 1017.6
20260507015541 52 282 3.5 12.2 0.00 0.09 0.01 39 1017.5
20260507015041 52 267 6.1 12.2 0.00 0.09 0.01 38 1017.3
20260507014603 53 259 7.0 11.3 0.00 0.09 0.01 38 1017.3
20260507014041 53 277 5.2 12.2 0.00 0.09 0.01 37 1017.2
20260507013541 53 267 6.1 12.2 0.00 0.09 0.01 37 1017.1
20260507013052 54 267 6.1 13.9 0.00 0.09 0.01 37 1017.2
20260507012542 54 306 7.0 13.9 0.00 0.09 0.01 37 1017.2
20260507012044 55 282 7.0 13.9 0.00 0.09 0.01 36 1017.0
20260507011550 55 287 6.1 13.0 0.00 0.09 0.01 36 1017.0
20260507011042 54 286 7.8 18.2 0.00 0.09 0.01 36 1017.0
20260507010542 54 277 8.7 20.0 0.00 0.09 0.01 36 1016.9
20260507010050 54 283 12.2 21.7 0.00 0.09 0.01 36 1017.0
20260507005542 54 287 12.2 21.7 0.00 0.09 0.01 36 1017.0
20260507005042 55 287 7.8 19.1 0.00 0.09 0.01 37 1016.7